Temp
5 5 5 5 5 5 5 5 5 5 5 5 6 6 5 5 5 5 6 6 6 6 6 6 6 6 6 6 6 6 6 6 6 6 5 5 5 5 4 4 4 4 4 3 3 3 3
5 5 5 5 5 5 5 5 5 5 5 5 5 5 6 5 5 5 5 6 6 6 6 6 6 6 6 6 6 6 6 6 6 6 6 5 5 5 5 4 4 4 4 3 3 2 2
5 5 5 5 5 5 5 5 5 5 5 5 5 5 5 5 5 5 5 5 6 6 6 6 6 6 6 6 6 6 6 6 6 6 6 5 5 5 5 4 4 4 4 4 3 3 2
4 4 4 4 4 5 5 5 5 5 5 5 5 5 5 5 5 5 5 5 5 5 6 6 6 6 6 6 6 6 6 6 6 6 6 5 5 5 5 4 4 4 3 3 3 2 2
4 4 4 4 4 4 4 4 4 4 4 5 5 5 5 5 5 5 5 5 5 6 6 6 6 6 6 6 6 6 6 6 6 6 6 6 5 5 5 4 3 3 1 2 3 2 1
4 4 4 4 4 4 4 5 4 4 4 4 4 5 5 5 5 5 5 5 6 6 6 6 6 6 6 6 6 6 6 6 6 6 6 6 6 5 4 3 3 2 1 1 1 1 1
3 4 4 4 4 4 4 4 4 4 4 4 4 4 4 4 5 5 5 5 6 6 6 6 6 6 5 6 6 6 6 6 6 6 6 6 5 5 4 4 3 3 2 2 3 1 2
3 3 3 4 4 4 4 4 4 4 4 4 4 4 4 4 4 5 4 5 5 5 6 7 7 6 6 5 5 5 5 5 6 6 6 6 6 5 5 4 4 3 3 1 2 2 1
3 3 4 4 3 4 4 4 4 4 4 3 4 4 4 4 4 4 4 4 4 5 5 7 7 6 5 5 5 5 5 5 5 6 5 5 5 5 5 4 4 3 3 3 1 3 2
3 3 3 3 3 3 4 4 4 3 3 4 3 4 3 4 4 4 4 4 4 4 5 7 6 6 5 5 5 5 5 5 5 5 5 5 5 5 4 4 4 4 4 4 4 2 1
3 3 4 4 4 3 3 3 3 3 4 3 4 4 4 4 3 4 4 4 4 4 3 6 6 6 5 5 5 5 5 5 5 5 5 5 5 5 4 4 4 3 3 4 4 3 1
3 3 3 3 3 3 3 3 3 3 3 3 3 3 4 4 4 3 3 3 3 3 3 5 6 5 5 5 5 5 5 5 4 4 5 5 5 5 4 4 3 3 3 4 3 3 2
2 2 2 3 3 3 3 3 3 3 3 3 3 3 3 3 3 3 3 2 2 3 4 5 5 4 4 4 4 5 4 5 4 4 5 5 5 4 4 3 3 3 2 3 3 3 4
3 3 3 3 3 3 3 3 3 3 3 3 3 3 3 3 3 2 2 1 1 3 4 4 4 4 4 4 4 4 4 4 4 4 3 3 4 4 4 3 2 2 2 2 2 3 3
2 2 2 2 2 2 2 2 2 2 2 3 3 3 3 3 3 2 1 -0 2 3 3 3 3 3 3 3 3 3 3 3 3 4 3 3 3 3 3 3 2 2 0 1 -0 -2 -1
1 1 1 1 1 1 1 2 2 2 2 2 2 2 2 2 3 2 0 0 1 1 1 2 2 2 2 2 2 2 2 3 3 3 2 2 1 2 3 2 2 1 1 -0 -1 1 2
1 1 1 1 1 1 1 1 1 1 1 2 1 1 2 2 1 0 -0 -1 -0 -0 0 -0 0 0 0 0 1 1 1 2 2 2 2 1 0 1 2 1 1 1 -0 -0 -0 -1 1
0 0 0 0 0 0 0 0 0 1 1 0 1 1 1 1 -0 -0 -0 -1 -1 -1 -2 -2 -1 -1 -1 -1 -1 -0 0 1 1 1 0 1 0 -1 0 1 1 0 -0 -1 0 -0 -2
-0 -0 -1 -1 -1 -0 -0 -0 -0 0 0 0 -0 -0 0 0 -1 -1 -1 -2 -2 -2 -2 -3 -3 -3 -2 -2 -2 -1 -1 -1 -1 -1 -1 -1 -1 -1 0 0 0 -0 -0 -1 -1 -1 -1
-2 -2 -2 -1 -1 -1 -1 -1 -1 -1 -1 -1 -1 -1 -1 -1 -1 -2 -2 -2 -3 -4 -4 -4 -4 -3 -3 -3 -3 -3 -2 -2 -2 -2 -2 -2 -2 -1 0 0 -1 -1 -2 -1 -2 -2 -1
-2 -2 -2 -2 -2 -2 -2 -2 -2 -2 -2 -2 -2 -2 -2 -3 -3 -3 -4 -4 -4 -4 -5 -5 -5 -5 -5 -5 -5 -5 -4 -4 -3 -3 -3 -3 -3 -3 -3 -2 -2 -2 -2 -2 -2 -2 -2
-3 -3 -3 -3 -3 -3 -3 -2 -2 -2 -2 -2 -3 -4 -4 -4 -4 -4 -5 -6 -5 -6 -6 -6 -6 -6 -6 -6 -7 -7 -6 -5 -5 -5 -5 -4 -5 -4 -4 -4 -3 -4 -4 -2 -2 -2 -2
-3 -3 -3 -3 -3 -3 -3 -3 -3 -3 -3 -3 -3 -3 -4 -5 -6 -6 -6 -6 -7 -7 -7 -7 -7 -7 -7 -8 -7 -6 -6 -6 -6 -6 -6 -6 -6 -6 -5 -4 -5 -5 -2 -1 0 -1 -2
-4 -4 -4 -4 -4 -4 -4 -4 -4 -4 -4 -4 -5 -5 -6 -7 -7 -7 -8 -9 -8 -8 -9 -8 -9 -9 -8 -8 -7 -6 -6 -5 -5 -5 -6 -6 -7 -7 -6 -6 -5 -3 -2 -1 -2 1 -0
-4 -4 -4 -4 -4 -5 -5 -5 -6 -6 -6 -6 -7 -8 -8 -8 -9 -9 -9 -10 -10 -10 -11 -10 -10 -10 -10 -9 -9 -8 -7 -6 -5 -5 -4 -5 -8 -8 -6 -5 -4 -4 -2 -1 -1 -0 -0
-5 -5 -5 -5 -5 -6 -6 -7 -7 -8 -9 -8 -9 -10 -11 -11 -11 -12 -12 -12 -12 -11 -10 -11 -12 -11 -11 -11 -11 -10 -8 -8 -6 -6 -5 -5 -7 -9 -7 -6 -4 -3 -3 -2 -2 -2 -1
-6 -6 -6 -6 -7 -7 -8 -8 -9 -9 -10 -10 -11 -11 -13 -14 -13 -13 -13 -14 -13 -13 -13 -12 -12 -11 -11 -12 -12 -11 -10 -9 -8 -7 -7 -6 -8 -9 -8 -7 -5 -5 -4 -4 -4 -3 -3
-6 -7 -7 -7 -8 -9 -9 -10 -11 -12 -13 -13 -13 -13 -14 -14 -14 -14 -14 -13 -13 -13 -13 -14 -14 -13 -12 -12 -13 -11 -11 -10 -10 -9 -8 -8 -8 -8 -8 -7 -6 -6 -5 -5 -5 -5 -4
-7 -8 -9 -9 -9 -10 -11 -12 -14 -14 -14 -14 -14 -14 -14 -14 -14 -14 -14 -14 -13 -14 -14 -14 -14 -13 -13 -13 -13 -13 -13 -13 -13 -12 -11 -10 -9 -10 -10 -7 -6 -6 -6 -7 -7 -7 -6
Height
3172 3172 3171 3171 3170 3170 3169 3168 3166 3165 3164 3163 3162 3160 3158 3157 3155 3154 3152 3151 3149 3147 3146 3145 3144 3142 3141 3140 3138 3136 3134 3132 3130 3128 3126 3124 3122 3119 3117 3115 3112 3110 3107 3104 3101 3097 3092
3171 3171 3171 3171 3170 3169 3169 3168 3167 3166 3164 3162 3161 3159 3157 3156 3154 3153 3151 3150 3148 3146 3145 3143 3142 3141 3140 3139 3136 3134 3133 3131 3129 3127 3125 3123 3120 3118 3115 3113 3111 3107 3104 3101 3098 3093 3089
3171 3171 3171 3170 3170 3169 3168 3168 3167 3166 3164 3162 3160 3158 3156 3155 3153 3151 3149 3148 3146 3145 3143 3141 3140 3138 3138 3137 3134 3133 3131 3129 3127 3125 3123 3121 3119 3116 3113 3110 3108 3105 3101 3097 3094 3090 3086
3170 3170 3170 3170 3169 3168 3168 3167 3166 3165 3164 3162 3160 3158 3156 3154 3152 3150 3148 3146 3145 3143 3141 3138 3137 3136 3135 3134 3133 3131 3130 3128 3126 3124 3122 3119 3117 3114 3111 3109 3106 3102 3098 3094 3092 3087 3082
3169 3169 3169 3168 3168 3167 3166 3165 3164 3163 3162 3160 3159 3157 3155 3153 3150 3148 3146 3145 3143 3141 3138 3137 3136 3134 3133 3132 3131 3129 3128 3127 3124 3123 3120 3118 3116 3113 3110 3107 3103 3100 3097 3093 3087 3082 3079
3168 3168 3167 3167 3166 3166 3165 3164 3164 3162 3161 3160 3158 3156 3154 3152 3150 3147 3145 3143 3141 3138 3136 3135 3133 3134 3132 3130 3129 3127 3126 3125 3123 3121 3119 3117 3114 3111 3108 3105 3105 3099 3095 3090 3086 3082 3075
3166 3166 3166 3165 3165 3164 3163 3162 3161 3160 3159 3158 3156 3154 3152 3151 3149 3147 3145 3142 3142 3139 3135 3134 3132 3129 3128 3128 3126 3125 3124 3123 3121 3119 3117 3114 3113 3110 3107 3104 3101 3097 3092 3087 3081 3076 3071
3164 3164 3164 3163 3162 3161 3161 3160 3159 3157 3156 3155 3154 3152 3150 3148 3146 3145 3143 3140 3138 3137 3132 3130 3127 3125 3123 3124 3124 3123 3122 3122 3119 3117 3115 3113 3109 3107 3105 3101 3098 3095 3090 3086 3077 3072 3068
3163 3162 3161 3161 3160 3159 3158 3157 3155 3154 3153 3151 3149 3148 3146 3145 3143 3142 3140 3138 3135 3132 3130 3126 3122 3120 3121 3122 3120 3120 3120 3118 3116 3114 3112 3110 3108 3104 3102 3099 3096 3093 3089 3083 3078 3071 3067
3161 3160 3159 3158 3157 3156 3155 3154 3153 3151 3150 3147 3145 3143 3142 3141 3141 3137 3136 3134 3133 3131 3126 3123 3119 3117 3118 3118 3118 3117 3116 3116 3113 3112 3109 3106 3104 3102 3099 3097 3095 3090 3087 3081 3076 3071 3070
3158 3157 3156 3155 3153 3152 3150 3149 3147 3145 3144 3142 3140 3139 3137 3136 3135 3133 3133 3130 3129 3129 3126 3119 3115 3115 3115 3117 3116 3115 3113 3111 3109 3108 3108 3104 3101 3099 3096 3095 3092 3090 3084 3079 3075 3071 3068
3153 3152 3151 3149 3148 3146 3144 3142 3141 3139 3137 3136 3133 3133 3132 3131 3130 3129 3128 3127 3127 3130 3121 3115 3113 3111 3112 3111 3112 3111 3110 3108 3106 3103 3101 3100 3097 3095 3093 3092 3089 3086 3082 3077 3073 3070 3067
3149 3147 3146 3144 3142 3140 3138 3137 3135 3133 3131 3129 3127 3125 3124 3124 3124 3123 3122 3123 3125 3122 3118 3113 3110 3109 3108 3108 3106 3105 3104 3103 3101 3100 3097 3095 3093 3091 3090 3089 3086 3084 3081 3078 3074 3070 3066
3144 3143 3141 3139 3137 3135 3133 3131 3130 3127 3125 3124 3121 3119 3117 3117 3116 3116 3116 3118 3117 3110 3110 3108 3107 3106 3105 3104 3101 3100 3098 3096 3096 3095 3092 3090 3089 3088 3087 3086 3084 3081 3081 3081 3078 3072 3067
3139 3138 3136 3135 3131 3129 3127 3124 3121 3118 3116 3116 3114 3112 3111 3110 3109 3109 3110 3110 3106 3105 3103 3101 3102 3099 3099 3098 3097 3095 3094 3092 3090 3089 3090 3086 3085 3084 3083 3082 3082 3079 3079 3078 3077 3073 3072
3135 3134 3131 3129 3126 3124 3121 3119 3115 3112 3110 3108 3105 3103 3102 3102 3101 3101 3101 3098 3098 3099 3099 3097 3095 3096 3095 3094 3093 3091 3088 3086 3085 3085 3084 3083 3081 3079 3078 3078 3077 3077 3076 3076 3074 3071 3065
3130 3128 3125 3123 3122 3120 3117 3116 3113 3109 3106 3105 3102 3098 3097 3096 3095 3095 3093 3092 3091 3091 3091 3092 3090 3088 3088 3089 3087 3085 3083 3083 3080 3080 3080 3079 3079 3077 3075 3074 3073 3073 3071 3071 3072 3071 3066
3126 3123 3122 3120 3118 3115 3113 3110 3107 3104 3103 3100 3098 3095 3093 3091 3092 3087 3087 3087 3087 3085 3085 3084 3083 3083 3082 3082 3079 3080 3079 3077 3076 3075 3075 3075 3072 3071 3071 3069 3068 3067 3067 3068 3067 3068 3066
3121 3120 3118 3115 3113 3111 3109 3105 3102 3100 3099 3097 3094 3091 3089 3087 3086 3084 3082 3082 3081 3080 3079 3078 3078 3077 3075 3077 3076 3072 3072 3073 3072 3071 3069 3068 3067 3066 3065 3066 3063 3062 3062 3063 3063 3062 3060
3117 3115 3113 3111 3109 3107 3103 3100 3097 3095 3093 3092 3090 3089 3086 3082 3080 3080 3078 3077 3074 3073 3073 3071 3071 3071 3071 3070 3071 3066 3066 3067 3067 3066 3065 3064 3061 3062 3060 3061 3061 3060 3060 3060 3059 3057 3052
3114 3112 3109 3107 3105 3101 3098 3096 3093 3090 3088 3088 3085 3082 3082 3081 3076 3076 3073 3072 3069 3069 3068 3067 3066 3066 3065 3064 3062 3061 3058 3059 3060 3060 3060 3060 3056 3056 3055 3056 3055 3052 3053 3053 3049 3046 3045
3109 3107 3104 3102 3098 3096 3093 3090 3089 3085 3083 3081 3081 3080 3075 3074 3071 3070 3068 3064 3063 3061 3062 3062 3062 3060 3059 3058 3057 3053 3053 3055 3054 3054 3053 3053 3052 3050 3047 3049 3049 3044 3043 3040 3038 3035 3030
3105 3102 3099 3096 3093 3090 3087 3084 3082 3079 3077 3074 3072 3070 3069 3067 3065 3065 3062 3059 3057 3056 3056 3055 3054 3052 3052 3050 3047 3046 3045 3044 3046 3047 3049 3048 3047 3048 3039 3046 3042 3034 3026 3025 3023 3023 3022
3099 3096 3094 3091 3087 3085 3082 3078 3075 3072 3069 3067 3065 3063 3062 3060 3059 3057 3055 3053 3051 3050 3049 3049 3048 3045 3044 3041 3038 3037 3035 3034 3034 3033 3038 3035 3040 3043 3035 3041 3033 3019 3018 3017 3016 3016 3015
3094 3091 3088 3085 3081 3077 3075 3072 3068 3067 3063 3059 3056 3055 3052 3050 3050 3050 3048 3047 3045 3044 3043 3041 3041 3039 3036 3034 3032 3029 3027 3024 3021 3021 3022 3024 3031 3033 3031 3028 3018 3017 3015 3012 3012 3013 3013
3088 3084 3081 3077 3073 3070 3067 3065 3061 3058 3056 3053 3051 3048 3046 3044 3043 3043 3041 3040 3039 3037 3037 3036 3035 3033 3030 3029 3029 3027 3024 3020 3019 3017 3016 3016 3017 3025 3024 3021 3013 3010 3009 3008 3009 3013 3012
3080 3076 3073 3069 3066 3062 3059 3056 3053 3051 3049 3046 3044 3042 3040 3037 3035 3034 3035 3035 3033 3030 3030 3029 3027 3028 3025 3023 3023 3022 3020 3018 3015 3013 3012 3012 3013 3012 3015 3015 3007 3006 3007 3008 3011 3014 3008
3072 3069 3066 3062 3059 3057 3053 3049 3046 3044 3042 3039 3038 3036 3034 3030 3027 3027 3028 3027 3028 3027 3026 3024 3025 3024 3022 3021 3019 3018 3015 3011 3009 3008 3008 3009 3009 3008 3009 3007 3003 2999 3001 3004 3002 3000 3000
3064 3060 3059 3056 3053 3050 3047 3044 3040 3038 3037 3035 3032 3030 3028 3025 3021 3019 3020 3021 3021 3020 3020 3018 3021 3020 3019 3019 3017 3013 3012 3009 3007 3006 3005 3006 3006 3002 3000 2994 2991 2992 2993 2994 2994 2994 2992
Wind_Speed
3 2 1 2 3 4 5 6 7 8 9 9 9 10 9 8 8 9 10 10 10 10 10 10 9 8 8 7 8 8 8 9 11 12 14 15 16 17 18 18 18 17 19 13 20 18 20
3 2 3 3 4 4 5 7 8 8 9 10 10 10 10 10 9 9 9 10 11 11 11 11 11 9 9 9 8 9 8 9 11 12 13 15 17 18 16 18 13 21 20 15 13 16 19
3 4 4 5 5 5 5 6 8 10 11 12 11 11 11 11 10 10 10 11 11 11 12 12 12 9 9 9 8 9 9 10 11 13 14 15 15 16 17 17 20 16 16 22 16 17 19
4 5 5 6 7 6 7 8 9 10 12 13 13 12 12 12 11 11 11 11 11 12 13 12 10 9 9 9 8 9 9 9 10 12 14 15 15 15 15 19 21 20 16 23 22 20 18
5 6 6 7 7 8 8 9 10 11 12 13 13 13 12 12 11 12 11 11 12 12 12 9 9 10 11 8 8 8 8 9 10 11 12 13 14 13 16 19 13 17 18 21 21 22 23
6 7 7 8 8 9 10 11 13 14 15 15 15 14 14 13 13 12 12 12 12 13 9 11 12 10 10 9 9 9 8 9 10 11 12 13 13 13 16 17 10 16 17 20 22 21 25
7 8 8 8 8 9 11 13 14 15 16 17 18 18 17 16 16 15 15 16 15 13 14 12 16 15 16 11 10 8 8 8 10 12 13 13 12 12 14 17 18 20 22 22 28 23 22
9 10 9 10 11 13 14 14 15 15 16 18 19 19 20 19 17 18 19 18 19 19 20 18 18 15 15 11 10 9 9 9 10 12 12 15 11 11 14 16 20 21 20 19 27 23 22
11 12 13 15 17 18 17 16 17 17 19 20 20 19 20 20 20 19 19 19 20 20 22 22 19 14 14 11 11 10 8 10 11 12 12 15 13 13 14 15 18 19 18 26 24 22 13
14 15 16 17 19 20 20 21 21 21 22 22 22 21 20 20 20 20 20 20 21 23 19 14 11 8 10 11 11 6 10 10 13 14 15 9 11 15 15 13 16 16 21 27 20 17 6
17 18 19 21 22 22 23 23 23 23 24 24 24 23 22 20 22 22 21 21 20 19 5 8 8 7 9 9 8 10 11 13 15 16 16 14 16 17 17 11 15 12 20 25 13 12 9
18 19 20 21 22 22 24 24 25 25 24 24 24 24 24 24 23 23 23 21 19 8 8 7 10 9 10 10 10 15 17 18 17 17 15 18 14 16 11 11 15 15 18 16 9 9 3
18 20 21 21 21 21 22 22 23 24 24 24 25 24 24 25 24 23 22 20 10 7 11 11 12 9 8 13 21 21 21 20 16 10 15 21 17 13 11 13 13 15 13 5 3 3 4
16 16 18 19 21 23 24 25 26 25 24 22 22 21 21 24 25 24 22 17 12 13 18 21 20 24 23 23 23 23 19 14 13 18 19 10 7 10 10 15 10 12 7 1 4 4 7
18 20 21 24 25 26 26 27 26 28 28 26 25 26 24 22 21 24 23 21 19 17 16 20 21 22 23 21 20 13 18 23 24 16 9 6 8 10 18 17 11 6 3 6 4 5 4
22 23 24 24 23 22 21 20 20 21 23 24 24 28 28 26 24 23 24 29 23 20 22 22 21 16 17 17 17 17 16 13 12 13 10 13 11 12 14 15 15 10 9 3 3 3 4
21 19 18 18 19 20 20 21 21 20 21 21 21 20 20 21 22 21 23 23 24 23 23 26 23 23 24 23 21 19 14 17 14 17 16 14 13 11 16 14 13 13 11 7 4 3 3
16 15 16 18 19 20 21 22 21 20 20 21 20 20 18 17 16 18 20 24 25 21 21 22 23 24 25 25 24 23 21 20 13 19 21 18 15 15 16 21 24 19 17 11 5 3 5
15 15 17 18 19 21 22 24 24 23 22 22 22 21 16 15 14 17 20 21 22 25 23 19 14 16 16 14 11 13 17 18 13 16 12 13 10 5 5 12 18 12 9 12 11 14 15
15 16 18 20 21 23 23 24 25 25 25 24 22 19 19 18 16 15 16 18 15 19 20 21 23 24 27 29 26 19 21 18 20 22 19 17 21 20 21 11 9 14 16 19 20 17 21
17 19 20 22 23 24 25 25 26 27 26 25 23 18 18 18 21 19 20 18 19 16 17 18 17 16 17 16 18 20 25 25 26 26 24 22 23 24 28 26 26 29 29 28 33 34 27
19 21 23 24 25 27 27 27 26 26 25 25 22 20 18 20 20 18 16 19 19 19 21 20 22 23 23 24 23 27 25 20 20 16 17 22 16 19 24 22 25 28 31 38 41 44 47
22 23 24 26 27 28 29 29 30 30 30 28 25 26 24 22 19 19 21 20 20 21 20 18 19 22 20 25 29 32 34 36 35 32 27 26 22 14 27 18 22 28 34 31 29 27 33
23 25 26 27 28 29 30 30 30 31 33 31 28 26 25 23 20 19 20 21 21 22 26 24 24 27 29 30 34 36 36 38 38 40 37 41 28 23 27 19 13 20 17 17 20 14 22
25 27 28 30 31 31 32 33 31 30 30 30 29 27 26 27 25 21 15 16 17 19 20 20 20 21 25 25 27 25 21 23 23 23 26 32 34 25 13 16 25 29 17 22 21 21 20
27 28 29 31 32 33 33 33 32 30 28 30 27 26 25 28 21 24 23 13 18 23 24 17 15 19 25 25 20 9 8 7 6 6 7 12 23 30 15 8 6 2 2 6 2 11 15
28 29 31 33 35 35 35 35 33 30 27 28 25 24 24 26 26 14 18 24 23 14 12 21 21 19 17 12 10 12 14 11 8 9 9 10 11 33 31 22 16 16 17 17 12 6 6
30 31 32 33 33 33 32 31 28 25 23 24 21 19 22 27 31 31 27 26 11 16 21 23 21 10 9 8 5 8 9 10 10 14 11 9 8 10 19 17 19 14 12 15 11 12 13
31 32 32 32 32 31 29 26 22 21 22 22 24 19 22 27 30 32 28 24 31 29 29 33 18 12 13 16 15 13 13 14 16 14 14 11 16 11 11 14 16 14 11 13 14 18 23
Wind_Direction
170 183 265 346 359 358 358 357 0 359 357 353 348 342 333 325 327 330 332 331 328 326 320 313 304 308 324 323 333 333 341 344 345 344 344 345 343 338 337 337 338 341 341 335 332 321 319
211 245 285 304 317 334 345 347 354 357 1 360 353 345 340 331 321 320 323 323 322 320 317 311 305 288 307 305 316 325 330 337 341 341 340 340 341 337 338 336 337 336 338 342 343 330 323
242 264 286 296 306 321 330 336 340 343 347 348 349 349 343 338 329 320 317 318 317 318 317 310 303 286 294 299 308 319 327 333 337 341 341 339 340 340 338 343 337 340 344 346 345 333 331
260 281 291 302 309 316 318 322 325 332 338 342 342 342 342 341 336 327 319 319 320 317 320 313 299 285 289 296 296 313 319 327 334 337 339 339 344 344 347 343 342 347 343 348 339 336 335
266 282 294 302 302 302 304 309 313 318 324 328 332 334 333 334 336 334 330 326 323 320 320 315 308 290 284 279 291 305 312 322 327 333 339 338 342 345 346 349 352 347 331 332 341 335 332
279 286 291 293 298 308 314 313 312 314 316 318 319 322 326 327 327 332 332 331 332 326 318 312 301 295 270 278 290 299 303 312 317 323 329 335 339 343 345 352 339 323 325 327 326 323 329
286 287 291 296 302 306 309 308 310 313 314 315 315 315 316 317 321 326 331 330 331 335 329 321 296 287 266 275 281 288 288 302 306 314 322 328 327 337 343 343 343 340 335 329 339 327 329
288 291 290 292 299 308 311 311 311 312 315 316 312 311 311 313 315 316 319 325 327 325 319 319 308 285 249 261 273 284 277 297 303 306 312 315 308 323 337 341 340 342 342 334 344 337 323
293 294 290 291 299 305 302 303 300 299 305 310 306 303 303 305 308 310 311 314 316 317 318 313 302 280 237 253 269 282 270 297 305 306 307 308 291 308 314 332 337 340 343 337 330 340 334
307 306 304 302 302 305 306 304 301 301 303 307 305 301 299 300 300 303 305 308 313 319 313 298 293 275 242 252 270 258 299 299 302 304 312 302 298 310 310 310 332 335 339 340 335 339 328
303 303 303 303 304 304 306 305 304 303 302 300 298 300 297 297 298 299 301 306 310 319 317 279 267 277 250 248 274 294 301 300 293 291 301 293 299 304 303 295 324 323 335 333 328 332 333
298 301 302 303 305 306 306 305 304 303 301 299 295 293 290 291 291 294 296 299 306 308 248 267 260 260 252 237 288 299 298 300 292 284 289 300 287 298 286 306 315 325 338 326 320 334 302
299 303 305 307 309 310 310 310 309 307 303 298 293 289 287 285 285 285 286 289 295 222 284 277 266 260 249 269 288 289 294 293 272 286 293 302 294 285 275 313 317 332 347 328 313 326 308
304 307 308 308 307 306 305 303 302 301 300 301 299 296 292 285 279 277 277 272 235 253 253 269 277 283 284 289 283 283 278 277 267 279 277 268 274 288 282 312 294 317 350 338 296 312 315
299 300 300 302 302 302 303 303 300 295 290 285 283 283 287 289 285 273 265 252 254 269 269 263 272 274 275 277 263 266 285 282 278 272 234 250 244 284 285 295 287 301 296 301 259 276 277
298 301 305 306 306 310 316 318 322 321 317 307 291 284 279 276 274 265 256 253 255 259 262 262 264 269 274 271 272 283 278 273 265 258 258 269 277 275 271 283 277 267 289 284 250 276 282
303 306 311 315 317 321 324 325 326 327 326 322 320 315 304 292 283 271 253 255 260 262 264 266 265 262 269 274 272 265 260 272 253 269 279 272 254 263 266 276 265 270 277 231 230 223 280
308 315 320 322 324 325 324 324 326 329 326 325 321 319 318 311 288 272 264 265 267 264 260 262 268 270 271 270 268 270 266 246 251 274 276 264 268 257 259 267 274 266 265 233 242 216 243
319 320 322 324 324 320 323 324 326 325 323 321 322 319 315 310 288 281 274 269 273 273 268 266 258 261 265 261 262 255 252 255 264 275 257 250 242 259 256 264 263 258 259 231 258 275 255
321 326 326 323 321 320 321 321 321 321 321 320 320 315 308 301 293 290 290 287 271 267 273 268 264 264 265 265 260 267 264 271 276 262 245 239 243 245 257 274 268 276 278 273 269 264 265
323 322 321 320 319 321 320 320 320 319 319 319 318 312 308 295 295 290 290 283 283 272 260 263 273 268 272 275 270 266 266 267 258 257 265 261 263 268 265 264 267 270 271 271 268 270 260
317 318 318 318 319 320 319 319 318 318 317 315 316 313 307 297 294 294 285 278 278 272 278 268 258 259 259 266 266 270 266 264 268 256 257 253 262 267 276 277 276 276 273 270 268 268 268
314 316 316 315 316 316 317 318 317 316 316 315 312 308 306 300 295 291 285 279 279 285 288 280 281 276 267 265 266 266 269 272 267 266 258 259 262 276 274 284 293 284 275 277 279 276 270
313 314 313 313 314 313 314 314 315 314 312 311 309 306 304 299 294 291 287 286 280 280 278 279 276 278 282 277 275 277 275 273 270 266 261 261 255 254 270 285 264 268 263 258 262 280 276
314 314 313 313 313 314 316 316 316 315 313 311 309 307 303 299 298 298 284 284 282 285 282 290 289 277 279 281 293 297 291 285 279 269 254 248 241 240 243 236 267 280 252 263 270 277 286
312 312 315 315 315 315 315 314 313 313 312 306 303 300 297 295 301 298 301 295 299 293 287 275 279 285 285 287 286 266 269 276 269 271 242 243 230 218 225 236 254 272 89 53 62 258 288
314 317 318 317 316 317 316 314 316 315 311 302 299 294 288 287 295 269 288 299 305 280 291 310 310 308 293 285 258 258 255 247 259 251 246 246 214 218 228 237 261 273 256 270 270 295 280
317 319 319 318 318 316 316 316 316 315 313 307 301 289 282 278 276 281 289 282 257 278 291 296 308 319 318 296 262 260 256 248 250 244 245 238 232 227 229 239 247 250 253 223 225 208 245
322 322 320 318 317 315 313 313 313 312 313 307 304 292 277 275 270 274 282 283 284 274 273 284 284 278 271 284 278 283 275 282 277 280 255 269 230 258 246 237 230 220 251 238 266 273 261